Погода в Херсоне

Погода в Херсоне : погода сейчас, прогноз погоды и архив. Всё, что Вы хотите узнать о погоде в Херсоне!

Хотите узнать прогноз погоды в Херсоне? Тогда Вам сюда: Погода в Херсоне

Поиск расширенной информации на нашем сайте:

Другие новости

Новости СМИ2

Главная страница сайта

Новости сайта

03.07.2017

Напоминаем, что на нашем специализированном сайте Метеоцентр.Азия вы можете получить высокодетализированные автоматические прогнозы погоды по пунктам России, СНГ и мира в авиационном формате (включающие направление и скорость ветра, видимость, явления погоды, количество и форму облачности, нижнюю и верхнюю границу облачности).

Рекомендуем: Какие банки выдают кредиты в Херсоне.

Погода в Херсоне - сегодня

Время (UTC), дата Ветер
(°,м/с) 
Видим.   Явления Облачность Т
(°С)
Тd
(°С)
f(%) Тe
(°С)
Pmin
(гПа)
dP
(гПа)
Po
(мм)
O2
(г/м3)
Тmin Tmax R s Состояние
почвы
18 23.07.17 360 (С) 10 км    1/1 600 м 
[Sc]
+25.9 +14.3 49 +33  1013  1.2  755  275    +32.7       
21 23.07.17 020 (С) 10 км    ясно 
+22.3 +13.7 58 +29  1014  756  279           
00 24.07.17 010 (С) 10 км    4/4 2000 м средняя 
[Ac trans]
+19.1 +14.1 73 +28  1013.4  -0.7  755  282           
06 24.07.17 050 (СВ) 10 км    1/1 2000 м средняя 
[Ac lent]
+23.7 +16.9 66 +36  1012.4  -0.8  755  276  +16.9         
09 24.07.17 330 (СЗ) 10 км    6/0 верхняя 
[Ci fib]
+27.6 +16.3 50 +38  1011.9  -0.4  754  273           
12 24.07.17 тихо ()   20000 м    3/0 верхняя 
[Ci fib]
+30.4 +14.3 38 +38  1010.3  -1.6  753  270           
15 24.07.17 330 (СЗ) 20000 м    3/3 600 м 
[Cu hum]
+31.1 +14.6 37 +39  1008.8  -1.4  752  269           
18 24.07.17 330 (СЗ) 10 км    4/4 2000 м верхняя 
[Ci fib]
+27.1 +15.7 50 +37  1009.5  0.6  753  273    +32.1       
21 24.07.17 тихо ()   10 км    ясно 
+22.8 +14.9 61 +31  1009.2  -0.4  752  277           
00 25.07.17 050 (СВ) 10 км    ясно 
+20.5 +13.2 63 +26  1008.2  -1  752  279           
03 25.07.17 тихо ()   10 км    3/0 верхняя 
[Ci fib]
+18.5 +14.2 76 +26  1007.7  -0.6  751  281           
06 25.07.17 100 (В) 10 км    1/0 верхняя 
[Ci fib]
+27.3 +17.1 54 +40  1007.4  -0.1  751  271  +18.4         
09 25.07.17 140 (ЮВ) 10 км    1/0 верхняя 
[Ci fib]
+31.9 +17.4 42 +45  1006.6  -0.7  750  267           
12 25.07.17 360 (С) 10 км    3/1 600 м средняя 
[Cu hum|Ac trans]
+33.8 +20.4 46 +53  1004.9  -1.6  749  264           
15 25.07.17 180 (Ю) 10 км    6/3 600 м средняя 
[Cu hum|Ac trans]
+33.1 +17.6 40 +47  1003.9  -1.1  748  265           
18 25.07.17 220 (ЮЗ) 10 км    3/3 600 м 
[Sc]
+27.6 +17.5 54 +41  1005.4  1.4  749  270    +35.3       
21 25.07.17 тихо ()   10 км    3/3 600 м 
[Sc]
+23.4 +18.2 73 +38  1005.5  749  274           
00 26.07.17 190 (Ю) 10 км    ясно 
+21.1 +18.4 85 +36  1005.6  0.1  750  276           
03 26.07.17 тихо ()   4000 м  дымка  3/3 600 м средняя 
[Sc|Ac trans]
+20.9 +19.8 93 +39  1005.1  -0.5  749  276           
06 26.07.17 150 (ЮВ) 4000 м  дымка  9/4 1000 м средняя 
[Sc|Ac cast]
+24.8 +22.3 86 +49  1005.9  0.9  750  271  +20.2         
09 26.07.17 180 (Ю) 20000 м    10/0 средняя, верхняя 
[Ac lent|Cs]
+30.7 +16 41 +41  1005.6  -0.2  750  268           
12 26.07.17 180 (Ю) 20000 м    10/3 600 м средняя, верхняя 
[Cu med, cong|Ac cuf|Cs]
+33.1 +15.8 35 +43  1004.9  -0.7  749  266           
15 26.07.17 240 (ЮЗ) 20000 м    6/4 300 м кучево-дожд., верхняя 
[Cb calv|Ci]
+33 +14.3 32 +41  1004  -0.9  749  266           
18 26.07.17 350 (С) 10 км    4/3 1000 м средняя 
[Sc diur, vesp|Ac lent]
+26.2 +16.3 54 +37  1005.7  1.6  750  272    +34       
21 26.07.17 300 (СЗ) 10 км    6/6 2000 м средняя 
[Ac lent]
+23.7 +15.8 61 +34  1005.6  -0.2  750  275           
Время (UTC), дата Ветер
(°,м/с) 
Видим.   Явления Облачность Т
(°С)
Тd
(°С)
f(%) Тe
(°С)
Pmin
(гПа)
dP
(гПа)
Po
(мм)
O2
(г/м3)
Тmin Tmax R s Состояние
почвы

Для получения пояснительной информации подведите курсор к названию столбца.

ПОГОДА в Херсоне - архив

Всё, что Вы хотите узнать о погоде в Херсоне - удобно и подробно!

Выберите нужную дату (начиная с 1 января 2015* года) и нажмите кнопку "Найти".
Будут отображены архивные сводки погоды по пункту Херсон, начиная с указанной даты.


Отображать данные в формате CSV (для использования в таблицах Excel)


Внимание! Наш архив погоды предназначен исключительно для личного некоммерческого использования в познавательных целях. Если Вам необходимы официальные справки о состоянии погоды (для производственных, юридических, коммерческих и т.п. целей), обращайтесь в органы Росгидромета.

*Примечание: данная дата относится к архиву по метеостанциям СССР (Россия, СНГ, Балтия).
Архив по метеостанциям Зарубежной Европы и Азии (кроме Китая) хранится 10 дней, по другим регионам земного шара (Китай, Африка, Америка, Австралия, Океания) - 1 день.

Херсон - район местоположения метеостанции


Название, широта, долгота, высота метеостанции:
Херсон 46.6°ш. 32.6°д. 54 м над ур. моря [Украина]

Дополнительная информация

В oтличие oт бoльшинства пoгoдных сайтoв мы публикуем пoдрoбную метеoинфoрмацию в детальнoм прoфессиoнальнoм фoрмате.

Характеристики температуры и влажнoсти вoздуха измеряются на высoте 2 м в тени вдали oт зданий и деревьев.
Скoрoсть ветра измеряется на высoте 10 м (на урoвне рoста челoвека скoрoсть ветра ниже в 1.5-2 раза). Если метеoстанция нахoдится в гoрoде или в лесу, тo скoрoсть ветра занижена на 2-4 м/с пo сравнению с oткрытым местoм. Скoрoсть ветра над акватoриями крупных рек и oзёр, а также на вершинах хoлмoв на 2-5 м/с выше, чем в oбычных услoвиях.
Атмoсфернoе давление в разных тoчках местнoсти мoжет значительнo oтличаться oт давления на метеoстанции, в зависимoсти oт услoвий рельефа (при пoдъёме на 10 м давление пoнижается примернo на 1 мм рт.ст.).